TimeCDT,TemperatureF,Dew PointF,Humidity,Sea Level PressureIn,VisibilityMPH,Wind Direction,Wind SpeedMPH,Gust SpeedMPH,PrecipitationIn,Events,Conditions,WindDirDegrees,DateUTC
12:53 AM,51.1,39.9,66,29.82,10.0,West,13.8,-,N/A,,Scattered Clouds,260,2013-10-12 05:53:00
1:53 AM,50.0,37.9,63,29.84,10.0,West,16.1,21.9,N/A,,Clear,280,2013-10-12 06:53:00
2:53 AM,48.0,37.9,68,29.87,10.0,WSW,15.0,19.6,N/A,,Clear,250,2013-10-12 07:53:00
3:53 AM,48.0,37.9,68,29.88,10.0,West,17.3,-,N/A,,Clear,260,2013-10-12 08:53:00
4:53 AM,48.0,36.0,63,29.92,10.0,West,17.3,25.3,N/A,,Clear,260,2013-10-12 09:53:00
5:53 AM,48.0,35.1,61,29.95,10.0,West,15.0,25.3,N/A,,Clear,270,2013-10-12 10:53:00
6:53 AM,46.9,34.0,61,29.97,10.0,West,15.0,23.0,N/A,,Scattered Clouds,260,2013-10-12 11:53:00
7:53 AM,48.0,35.1,61,29.99,10.0,West,16.1,21.9,N/A,,Overcast,260,2013-10-12 12:53:00
8:53 AM,48.9,35.1,59,30.01,10.0,West,16.1,26.5,N/A,,Overcast,260,2013-10-12 13:53:00
9:53 AM,52.0,36.0,54,30.04,10.0,WNW,21.9,29.9,N/A,,Partly Cloudy,290,2013-10-12 14:53:00
10:53 AM,55.0,34.0,45,30.07,10.0,West,24.2,33.4,N/A,,Clear,280,2013-10-12 15:53:00
11:53 AM,57.9,33.1,39,30.09,10.0,WNW,25.3,34.5,N/A,,Clear,290,2013-10-12 16:53:00
12:45 PM,69.8,42.8,38,29.99,10.0,Variable,4.6,-,N/A,,Clear,0,2013-10-12 17:45:00
12:53 PM,60.1,28.9,31,30.11,10.0,WNW,25.3,34.5,N/A,,Clear,300,2013-10-12 17:53:00
1:53 PM,61.0,27.0,27,30.11,10.0,WNW,23.0,33.4,N/A,,Clear,300,2013-10-12 18:53:00
2:53 PM,61.0,28.0,29,30.11,10.0,West,20.7,32.2,N/A,,Clear,280,2013-10-12 19:53:00
3:53 PM,61.0,27.0,27,30.12,10.0,West,17.3,31.1,N/A,,Clear,280,2013-10-12 20:53:00
4:53 PM,61.0,27.0,27,30.14,10.0,WNW,20.7,25.3,N/A,,Clear,300,2013-10-12 21:53:00
5:53 PM,59.0,27.0,29,30.15,10.0,NW,12.7,21.9,N/A,,Clear,310,2013-10-12 22:53:00
6:53 PM,51.1,28.9,43,30.18,10.0,WNW,8.1,-,N/A,,Clear,290,2013-10-12 23:53:00
7:53 PM,48.9,28.9,46,30.21,10.0,West,5.8,-,N/A,,Clear,260,2013-10-13 00:53:00
8:53 PM,46.0,30.9,56,30.24,10.0,West,5.8,-,N/A,,Clear,260,2013-10-13 01:53:00
9:53 PM,44.1,30.9,60,30.26,10.0,West,6.9,-,N/A,,Clear,270,2013-10-13 02:53:00
10:53 PM,42.1,30.9,65,30.27,10.0,West,5.8,-,N/A,,Clear,270,2013-10-13 03:53:00
11:53 PM,42.1,30.9,65,30.29,10.0,WSW,4.6,-,N/A,,Clear,250,2013-10-13 04:53:00